sat.trackr.live / text

‹ back to catalog

STARLINK-31085

NORAD 58609 · 2023-200W

PAYLOAD ACTIVE UNKNOWN

§ Identity

Operator
Country
US
Launch date
2023-12-19
Launch site
AFETR
Launch vehicle
Mass (kg)
RCS (m²)

Purposes: comms

External: N2YO · Heavens-Above · Gunter

§ Orbital elements

Epoch: 2026-09-20T23:03:22.425408Z

Period
94.27 min
Inclination
43.0016°
Eccentricity
0.0001434
Mean motion
15.27573693 rev/d
Perigee alt
482.1 km
Apogee alt
484.1 km
Semi-major
6,861.2 km
B*
-1.8058e-6
RAAN
146.1720°
Arg perigee
267.3236°
Mean anomaly
92.7452°
Rev number
15,347

§ Raw data

STARLINK-310851 58609U 23200W   26263.96067622 -.00000312  00000+0 -18058-5 0  99962 58609  43.0016 146.1720 0001434 267.3236  92.7452 15.27573693153473

JSON: /api/v1/satellites/58609 · /tle

For live sub-satellite position, see the globe view (requires WebGL).

§ Visibility from observer

Set your observer location to see the next 7 days of passes ≥ 10°. The values pass through the URL so the page stays shareable.

No JS? Fill the form by hand. The geolocation button needs JavaScript.